Location: D�pe
(52.6057°N, 8.1808°E)
Time: 07:19:48
(UTC+00:00)

Cosmos 2184 Rocket - Pass Details

Date: 29 October 2020
Orbit: 960 x 1001 km, 82.9° (Epoch: 01 December)

Event Time Altitude Azimuth Distance (km) Brightness Sun altitude
Rises 18:31:41 0° 351° (N) 3,704 7.2 -23.1°
Reaches altitude 10° 18:34:18 10° 357° (N) 2,758 6.5 -23.5°
Enters shadow 18:40:26 50° 72° (ENE) 1,252 4.2 -24.4°
